+ View the NASA Portal
+ Center for Near-Earth Object Studies
IMPORTANT:
The SSD Announcement email list is now available. Major changes are coming in the near future, including possible hostname and/or URL changes. To be notified of such changes, subscribe to this email list.
Please visit
this page
for more details.
Don't show this message again
JPL Small-Body Database Browser
Search:
[
help
]
233481 (2006 SB29)
Classification:
Main-belt Asteroid
SPK-ID:
2233481
[
Ephemeris
|
Orbit Diagram
|
Orbital Elements
|
Mission Design
|
Physical Parameters
|
Discovery Circumstances
|
Close-Approach Data
]
[ show orbit diagram ]
Orbital Elements at Epoch 2458600.5 (2019-Apr-27.0) TDB
Reference:
JPL 16
(heliocentric ecliptic J2000)
Element
Value
Uncertainty (1-sigma)
Units
e
.1388261850167615
6.2779e-08
a
3.191374609168432
5.1381e-08
au
q
2.74832824721822
1.9791e-07
au
i
4.131882920205534
6.8256e-06
deg
node
271.5621991725987
0.00012165
deg
peri
204.9149752161562
0.00012558
deg
M
304.6734327524293
3.385e-05
deg
t
p
2458920.534154548642
(2020-Mar-12.03415455)
0.0001996
TDB
period
2082.404554794964
5.70
5.029e-05
1.377e-07
d
yr
n
.1728770709663791
4.175e-09
deg/d
Q
3.634420971118644
5.8514e-08
au
Orbit Determination Parameters
# obs. used (total)
278
data-arc span
6229 days (17.05 yr)
first obs. used
2001-09-28
last obs. used
2018-10-18
planetary ephem.
DE431
SB-pert. ephem.
SB431-N16
condition code
0
norm. resid. RMS
.62053
source
ORB
producer
Otto Matic
solution date
2018-Oct-31 04:04:12
Additional Information
Earth MOID
= 1.76565 au
Jupiter MOID
= 1.48385 au
T_jup
= 3.178
[ show covariance matrix ]
[
Ephemeris
|
Orbit Diagram
|
Orbital Elements
|
Mission Design
|
Physical Parameters
|
Discovery Circumstances
|
Close-Approach Data
]
Physical Parameter Table
Parameter
Symbol
Value
Units
Sigma
Reference
Notes
absolute magnitude
H
15.4
n/a
MPO460023
diameter
diameter
4.742
km
0.441
urn:nasa:pds:neowise_diameters_albedos::2.0[mainbelt] (http://adsabs.harvard.edu/abs/2011ApJ...741...68M)
geometric albedo
albedo
0.058
0.010
urn:nasa:pds:neowise_diameters_albedos::2.0[mainbelt] (http://adsabs.harvard.edu/abs/2011ApJ...741...68M)
233481 (2006 SB29)
Discovered 2006-Sep-17 by Spacewatch at Kitt Peak
Reference:
20100228/Numbers.arc
Last Updated:
2010-03-03
[ show close-approach data ]
Alternate Designations
2006 SB29
= 2003 AJ26
[
Ephemeris
|
Orbit Diagram
|
Orbital Elements
|
Mission Design
|
Physical Parameters
|
Discovery Circumstances
|
Close-Approach Data
]
2019-Dec-12 01:29 UT
(server date/time)
Site Manager:
Ryan S. Park
Webmaster
:
Alan B. Chamberlin